Miscellaneous Local Product
Issued by NWS North Platte, NE

Home | Current Version | Previous Version | Text Only | Print | Product List | Glossary On
Versions: 1 2 3 4 5 6 7 8 9 10 11 12 13 14 15 16 17 18 19 20 21 22 23 24 25 26 27 28 29 30 31 32 33 34 35 36 37 38 39 40 41 42 43 44 45 46 47 48 49 50
000
AXUS43 KLBF 302210
MISLBF


WESTERN AND NORTH CENTRAL NEBRASKA HOURLY WEATHER ROUNDUP
NATIONAL WEATHER SERVICE NORTH PLATTE NE
500 PM CDT TUE JUN 30 2015

***STATIONS NOT REPORTING VARIABLES SUCH AS SKY/WEATHER OR
PRESSURE ARE PROVIDED BY THE NEBRASKA DEPARTMENT OF
ROADS...RAWS...AND APRS NETWORKS...AND ARE NOT UNDER
NATIONAL WEATHER SERVICE QUALITY CONTROL***

...OBSERVATIONS IN AND NEAR THE EASTERN PANHANDLE OF NEBRASKA...

CITY           SKY/WX    TMP DP  RH WIND       PRES   REMARKS
PINE RIDGE     MOSUNNY   90  56  31 NW3       29.88F
CHADRON        MOSUNNY   92  62  36 NW6       29.87F HX  92
ALLIANCE       SUNNY     94  51  23 MISG      29.92F HX  91
SIDNEY         MOSUNNY   93  55  27 S7        29.98F HX  91
WHITECLAY        N/A     90  57  32 NW6         N/A
CRESCENT LAKE    N/A     97  48  18 SW6         N/A  HX  93
BIG SPRINGS      N/A     93  54  26 SW5         N/A  HX  90
$$

...OBSERVATIONS IN NORTH CENTRAL NEBRASKA...

CITY           SKY/WX    TMP DP  RH WIND       PRES   REMARKS
VALENTINE      CLOUDY    84  66  54 E14       29.86F
THEDFORD       PTSUNNY   94  58  29 W6        29.88F HX  93
AINSWORTH      CLOUDY    80  67  63 E13       29.89F
O`NEILL        CLOUDY    77  64  64 E12       29.90S
ORD            CLOUDY    85  69  58 E12       29.85F
BROKEN BOW     CLOUDY    90  66  45 S6        29.87F HX  92
VALENTINE NWR    N/A     87  68  52 SE7G14      N/A  HX  90
SPRINGVIEW       N/A     76  67  72 E5          N/A
HALSEY           N/A     95  58  28 SW5         N/A  HX  94
BREWSTER         N/A     94  70  46 S5          N/A  HX 100
ROSE             N/A     94  81  64 E14         N/A  HX 115
NEWPORT          N/A     77  69  76 E9          N/A
SARGENT          N/A     88  70  54 CALM        N/A  HX  92
CHAMBERS         N/A     79  65  62 E6G15       N/A
EWING            N/A     77  65  66 E5G12       N/A
$$

...OBSERVATIONS IN SOUTHWEST NEBRASKA AND FAR NORTHEAST COLORADO...

CITY           SKY/WX    TMP DP  RH WIND       PRES   REMARKS
WRAY           FAIR     100  48  17 SW13      29.94F HX  96
HOLYOKE        FAIR      99  50  19 CALM      29.93F HX  95
IMPERIAL       SUNNY     95  52  23 SW7       29.90F HX  92
OGALLALA       PTSUNNY   93  55  28 SW3       29.89F HX  91
NORTH PLATTE   CLOUDY    95  61  32 SW6       29.86F HX  95
MCCOOK         MOSUNNY  100  49  17 SW8       29.87F HX  97
LEXINGTON      CLOUDY    94  59  31 SW3       29.86F HX  93
PAXTON           N/A     96  55  25 NW3         N/A  HX  94
GOTHENBURG       N/A     94  55  26 CALM        N/A  HX  92
CALLAWAY         N/A     87  73  62 S6          N/A  HX  94
$$

...NORTH PLATTE AREA...

CITY           SKY/WX    TMP DP  RH WIND       PRES   REMARKS
AIRPORT        CLOUDY    95  61  32 SW6       29.86F HX  95
DOWNTOWN         N/A     98  62  30 CALM        N/A  HX  99
HILLCREST        N/A     97  60  29 S3G12       N/A  HX  97
$$

...SOME WEATHER OBSERVATIONS FROM AROUND THE REGION...

CITY           SKY/WX    TMP DP  RH WIND       PRES   REMARKS
DENVER         MOSUNNY   92  43  18 E9        30.06F
LARAMIE        PTSUNNY   71  48  43 SW3       30.23F
CHEYENNE       PTSUNNY   86  46  24 CALM      30.13F
SCOTTSBLUFF    MOSUNNY   91  54  28 W7        29.93F
RAPID CITY     CLOUDY    84  71  65 E8        29.90F
PIERRE         CLOUDY    77  66  68 E10       29.89R
WINNER         FAIR      78  61  55 E16       29.87F
SIOUX FALLS    LGT RAIN  73  65  75 W3        29.92S
OMAHA          CLOUDY    76  67  73 E5        29.89F
GRAND ISLAND   CLOUDY    88  68  51 E14       29.86F HX  91
KANSAS CITY    PTSUNNY   84  66  54 NE6       29.90F
WICHITA        PTSUNNY   99  58  25 SW8       29.87F HX  98
HAYS           SUNNY    100  48  17 SW18G24   29.86F HX  97
LIBERAL        SUNNY     95  52  23 S15       29.98F HX  92
GOODLAND       SUNNY     95  48  20 S9        29.96F HX  91
$$



USA.gov is the U.S. government's official web portal to all federal, state and local government web resources and services.